Home   Weather   Nottingham   Past weeks

Flag for United Kingdom Past Weather in Nottingham, England, United Kingdom — Yesterday and Last 2 Weeks

Now
48 °F

Rain. Partly sunny.


Feels Like: 45 °F
Forecast: 44 / 58 °F
Wind: 7 mph from Northeast

Location: East Midlands

Current Time: Oct 1, 2016 at 6:21:51 PM

Latest Report: Oct 1, 2016 at 5:50 PM


Visibility: 4 mi

Pressure: 29.68 "Hg

Humidity: 100%

Dew Point: 48 °F

Location of NottinghamLocation

Past Weather in Nottingham — Graph

°F

Nottingham Temperature Yesterday

Maximum temperature yesterday: 63 °F (at 12:50 PM)
Minimum temperature yesterday: 48 °F (at 5:20 AM)
Average temperature yesterday: 54 °F

High & Low Weather Summary for the Past Weeks

 TemperatureHumidityPressure
High70 °F (Sep 24, 2:50 PM)100% (Sep 19, 7:50 AM)30.24 "Hg (Sep 19, 7:50 AM)
Low43 °F (Oct 1, 7:20 AM)46% (Sep 29, 3:50 PM)29.65 "Hg (Oct 1, 1:50 PM)
Average57 °F80%30.04 "Hg
* Reported Sep 16 5:20 PM — Oct 1 5:20 PM, Nottingham, Weather by CustomWeather, © 2016

Note: Actual official high and low records may vary slightly from our data, if they occured in-between our weather recording intervals... More about our weather records

Advertising

Nottingham Weather History for the Previous 24 Hours

Scroll right to see more
 ConditionsComfort  
Time TempWeatherWind HumidityBarometerVisibility
5:20 PM
Sat, Oct 1
48 °FLight rain. Partly sunny.2 mph100%29.68 "Hg4 mi
4:50 PM50 °FRain. Partly sunny.7 mph94%29.68 "Hg4 mi
4:20 PM50 °FRain. Partly sunny.3 mph94%29.68 "Hg4 mi
3:50 PM50 °FLight rain. Broken clouds.3 mph94%29.68 "Hg4 mi
3:20 PM50 °FThundershowers. Broken clouds.6 mph94%29.68 "Hg4 mi
2:50 PM50 °FRain. Mostly cloudy.7 mph100%29.65 "HgN/A
2:20 PM48 °FThunderstorms. Broken clouds.9 mph100%29.65 "Hg4 mi
1:50 PM54 °FRain. Partly sunny.6 mph82%29.65 "Hg2 mi
1:20 PM55 °FPartly sunny.7 mph77%29.68 "HgN/A
12:50 PM55 °FPassing clouds.8 mph82%29.68 "HgN/A
12:20 PM54 °FPassing clouds.5 mph88%29.68 "HgN/A
11:50 AM54 °FSunny.5 mph88%29.68 "Hg10 mi
11:20 AM52 °FSunny.3 mph94%29.68 "Hg10 mi
10:50 AM52 °FSunny.5 mph88%29.68 "Hg10 mi
10:20 AM50 °FPassing clouds.6 mph94%29.68 "HgN/A
9:50 AM48 °FPassing clouds.5 mph94%29.68 "HgN/A
9:20 AM48 °FPassing clouds.7 mph94%29.68 "HgN/A
8:50 AM46 °FPassing clouds.6 mph100%29.68 "HgN/A
8:20 AM46 °FPassing clouds.7 mph93%29.68 "HgN/A
7:20 AM43 °FPassing clouds.5 mph100%29.68 "HgN/A
6:50 AM45 °FClear.No wind93%29.71 "Hg10 mi
6:20 AM46 °FClear.6 mph93%29.71 "Hg10 mi
5:50 AM46 °FClear.7 mph93%29.71 "Hg10 mi
5:20 AM46 °FPassing clouds.6 mph93%29.71 "HgN/A
4:50 AM46 °FClear.3 mph93%29.71 "Hg10 mi
4:20 AM46 °FClear.6 mph93%29.71 "Hg10 mi
3:50 AM46 °FPassing clouds.5 mph93%29.71 "HgN/A
3:20 AM48 °FClear.6 mph94%29.74 "Hg10 mi
2:50 AM48 °FClear.5 mph94%29.74 "Hg10 mi
2:20 AM48 °FClear.7 mph94%29.77 "Hg10 mi
1:50 AM48 °FPassing clouds.6 mph94%29.77 "HgN/A
1:20 AM50 °FClear.5 mph88%29.77 "Hg10 mi
12:50 AM50 °FClear.7 mph88%29.77 "Hg10 mi
12:20 AM50 °FClear.8 mph88%29.77 "Hg10 mi
11:50 PM
Fri, Sep 30
52 °FPassing clouds.7 mph88%29.80 "HgN/A
11:20 PM52 °FPassing clouds.7 mph88%29.80 "HgN/A
10:50 PM52 °FPassing clouds.8 mph82%29.80 "HgN/A
10:20 PM52 °FClear.7 mph82%29.80 "Hg10 mi
9:50 PM52 °FPassing clouds.8 mph82%29.80 "HgN/A
9:20 PM52 °FClear.6 mph82%29.80 "Hg10 mi
8:50 PM52 °FClear.7 mph82%29.83 "Hg10 mi
8:20 PM52 °FClear.7 mph82%29.83 "Hg10 mi
7:50 PM52 °FPassing clouds.6 mph88%29.83 "HgN/A
7:20 PM54 °FPassing clouds.7 mph88%29.80 "HgN/A
6:50 PM54 °FPassing clouds.8 mph88%29.80 "HgN/A
6:20 PM54 °FScattered clouds.7 mph88%29.80 "HgN/A
Weather by CustomWeather, © 2016

See weather overviewHow to use our weather pages